GW0290 Weather Reports


time (UTC)temp
C
wind
direction
speed
KPH
gust
KPH
rain 1hr
cm
rain 24hr
cm
rain mn
cm
humidity
%
barometer
mb
20260901081020 24 0 0.0 3.2 0.00 0.00 0.00 91 1019.1
20260901080525 24 0 0.0 3.2 0.00 0.00 0.00 91 1019.0
20260901080038 24 252 0.0 0.0 0.00 0.00 0.00 91 1018.9
20260901075521 24 0 0.0 3.2 0.00 0.00 0.00 91 1018.9
20260901075021 24 0 0.0 4.8 0.00 0.00 0.00 91 1019.0
20260901074535 24 164 1.6 4.8 0.00 0.00 0.00 91 1019.0
20260901074017 24 0 0.0 1.6 0.00 0.00 0.00 90 1019.0
20260901073520 24 0 0.0 1.6 0.00 0.00 0.00 90 1019.0
20260901073037 24 0 0.0 1.6 0.00 0.00 0.00 90 1019.0
20260901072518 24 246 0.0 1.6 0.00 0.00 0.00 90 1019.2
20260901072018 24 0 0.0 1.6 0.00 0.00 0.00 90 1019.2
20260901071538 24 0 0.0 3.2 0.00 0.00 0.00 90 1019.3
20260901071020 24 0 0.0 3.2 0.00 0.00 0.00 90 1019.4
20260901070525 24 0 0.0 3.2 0.00 0.00 0.00 90 1019.3
20260901070036 24 0 0.0 0.0 0.00 0.00 0.00 89 1019.3
20260901065520 24 0 0.0 1.6 0.00 0.00 0.00 89 1019.3
20260901065018 24 0 0.0 1.6 0.00 0.00 0.00 89 1019.3
20260901064535 24 0 0.0 1.6 0.00 0.00 0.00 89 1019.3
20260901064020 24 0 0.0 1.6 0.00 0.00 0.00 89 1019.3
20260901063519 24 0 0.0 1.6 0.00 0.00 0.00 89 1019.4
20260901063034 24 0 0.0 1.6 0.00 0.00 0.00 89 1019.5
20260901062518 24 0 0.0 3.2 0.00 0.00 0.00 89 1019.5
20260901062019 24 0 0.0 3.2 0.00 0.00 0.00 89 1019.5
20260901061538 24 0 0.0 1.6 0.00 0.00 0.00 89 1019.5
20260901061021 24 0 0.0 1.6 0.00 0.00 0.00 89 1019.5
20260901060521 24 0 0.0 1.6 0.00 0.00 0.00 89 1019.6
20260901060035 24 0 0.0 1.6 0.00 0.00 0.00 89 1019.6
20260901055521 24 0 0.0 4.8 0.00 0.00 0.00 88 1019.6
20260901055020 24 0 0.0 4.8 0.00 0.00 0.00 89 1019.6
20260901054538 24 177 1.6 4.8 0.00 0.00 0.00 89 1019.7
20260901054018 24 190 1.6 4.8 0.00 0.00 0.00 89 1019.8
20260901053519 24 184 1.6 4.8 0.00 0.00 0.00 89 1019.8
20260901053054 24 0 0.0 4.8 0.00 0.00 0.00 89 1019.8
20260901052516 24 171 0.0 6.4 0.00 0.00 0.00 88 1019.8
20260901052016 24 0 0.0 6.4 0.00 0.00 0.00 88 1019.8
20260901051548 24 188 0.0 3.2 0.00 0.00 0.00 88 1019.9
20260901051019 24 0 0.0 6.4 0.00 0.00 0.00 88 1019.9
20260901050520 23 0 0.0 6.4 0.00 0.00 0.00 88 1019.9
20260901050036 23 173 0.0 6.4 0.00 0.00 0.00 88 1019.8
20260901045519 23 0 0.0 0.0 0.00 0.00 0.00 88 1019.8
20260901045018 23 0 0.0 0.0 0.00 0.00 0.00 88 1019.7
20260901044542 23 0 0.0 0.0 0.00 0.00 0.00 88 1019.7
20260901044019 23 0 0.0 0.0 0.00 0.00 0.00 88 1019.7
20260901043519 23 0 0.0 0.0 0.00 0.00 0.00 88 1019.7
20260901043036 23 0 0.0 0.0 0.00 0.00 0.00 87 1019.7
20260901042518 24 0 0.0 0.0 0.00 0.00 0.00 87 1019.6
20260901042020 24 0 0.0 0.0 0.00 0.00 0.00 87 1019.6
20260901041538 24 0 0.0 0.0 0.00 0.00 0.00 87 1019.6
20260901041020 24 0 0.0 0.0 0.00 0.00 0.00 87 1019.6
20260901040518 24 0 0.0 0.0 0.00 0.00 0.00 87 1019.5
20260901040044 24 0 0.0 0.0 0.00 0.00 0.00 87 1019.5
20260901035520 24 0 0.0 0.0 0.00 0.00 0.00 87 1019.4
20260901035019 24 0 0.0 0.0 0.00 0.00 0.00 87 1019.4
20260901034533 24 0 0.0 0.0 0.00 0.00 0.00 86 1019.4
20260901034018 24 0 0.0 0.0 0.00 0.00 0.00 86 1019.4
20260901033518 24 0 0.0 0.0 0.00 0.00 0.00 86 1019.5
20260901033036 24 0 0.0 0.0 0.00 0.00 0.00 86 1019.5
20260901032519 24 0 0.0 0.0 0.00 0.00 0.00 85 1019.4
20260901032017 24 0 0.0 0.0 0.00 0.00 0.00 85 1019.4
20260901031534 24 0 0.0 0.0 0.00 0.00 0.00 85 1019.5
20260901031020 24 0 0.0 0.0 0.00 0.00 0.00 85 1019.4
20260901030515 24 0 0.0 0.0 0.00 0.00 0.00 84 1019.4
20260901030033 24 0 0.0 0.0 0.00 0.00 0.00 84 1019.3
20260901025517 25 0 0.0 0.0 0.00 0.00 0.00 84 1019.4
20260901025020 25 0 0.0 0.0 0.00 0.00 0.00 84 1019.4
20260901024534 25 0 0.0 0.0 0.00 0.00 0.00 84 1019.4
20260901024021 25 0 0.0 0.0 0.00 0.00 0.00 84 1019.3
20260901023516 25 0 0.0 0.0 0.00 0.00 0.00 83 1019.3
20260901023048 25 0 0.0 0.0 0.00 0.00 0.00 83 1019.4
20260901022518 25 0 0.0 0.0 0.00 0.00 0.00 83 1019.3
20260901022018 25 0 0.0 0.0 0.00 0.00 0.00 83 1019.3
20260901021535 25 0 0.0 0.0 0.00 0.00 0.00 82 1019.3
20260901021020 25 0 0.0 0.0 0.00 0.00 0.00 82 1019.3
20260901020518 25 0 0.0 0.0 0.00 0.00 0.00 82 1019.4
20260901020043 25 0 0.0 0.0 0.00 0.00 0.00 81 1019.4
20260901015522 25 0 0.0 0.0 0.00 0.00 0.00 81 1019.4
20260901015023 26 0 0.0 0.0 0.00 0.00 0.00 81 1019.4
20260901014549 26 0 0.0 0.0 0.00 0.00 0.00 80 1019.3
20260901014021 26 0 0.0 0.0 0.00 0.00 0.00 80 1019.2
20260901013518 26 0 0.0 0.0 0.00 0.00 0.00 80 1019.2
20260901013035 26 0 0.0 0.0 0.00 0.00 0.00 79 1019.0
20260901012519 26 0 0.0 0.0 0.00 0.00 0.00 79 1019.1
20260901012018 26 0 0.0 0.0 0.00 0.00 0.00 79 1018.9
20260901011536 26 0 0.0 0.0 0.00 0.00 0.00 78 1018.9
20260901011020 27 0 0.0 0.0 0.00 0.00 0.00 78 1018.7
20260901010517 27 0 0.0 0.0 0.00 0.00 0.00 77 1018.7
20260901010034 27 0 0.0 0.0 0.00 0.00 0.00 77 1018.7
20260901005523 27 0 0.0 0.0 0.00 0.00 0.00 77 1018.6
20260901005025 27 0 0.0 0.0 0.00 0.00 0.00 76 1018.6
20260901004541 27 0 0.0 0.0 0.00 0.00 0.00 75 1018.6
20260901004020 28 0 0.0 0.0 0.00 0.00 0.00 74 1018.5
20260901003520 28 0 0.0 0.0 0.00 0.00 0.00 74 1018.5
20260901003037 28 0 0.0 0.0 0.00 0.00 0.00 74 1018.5
20260901002521 28 0 0.0 0.0 0.00 0.00 0.00 73 1018.4
20260901002022 28 0 0.0 0.0 0.00 0.00 0.00 72 1018.4
20260901001537 28 0 0.0 0.0 0.00 0.00 0.00 72 1018.5
20260901001023 28 0 0.0 0.0 0.00 0.00 0.00 72 1018.4
20260901000518 28 0 0.0 0.0 0.00 0.00 0.00 71 1018.3
20260901000036 29 0 0.0 0.0 0.00 0.00 0.00 71 1018.2
20260831235520 29 0 0.0 0.0 0.00 0.00 0.00 70 1018.3
20260831235018 29 0 0.0 0.0 0.00 0.00 0.00 69 1018.2
20260831234537 29 0 0.0 0.0 0.00 0.00 0.00 69 1018.2
20260831234017 29 0 0.0 0.0 0.00 0.00 0.00 69 1018.3
20260831233519 30 0 0.0 0.0 0.00 0.00 0.00 69 1018.3
20260831233037 30 0 0.0 0.0 0.00 0.00 0.00 69 1018.2
20260831232521 30 0 0.0 0.0 0.00 0.00 0.00 68 1018.2
20260831232020 30 0 0.0 0.0 0.00 0.00 0.00 67 1018.1
20260831231537 30 0 0.0 0.0 0.00 0.00 0.00 67 1018.3
20260831231020 30 0 0.0 0.0 0.00 0.00 0.00 66 1018.2
20260831230521 30 0 0.0 0.0 0.00 0.00 0.00 65 1018.2
20260831230038 30 0 0.0 0.0 0.00 0.00 0.00 65 1018.2
20260831225517 31 0 0.0 0.0 0.00 0.00 0.00 64 1018.2
20260831225019 31 0 0.0 0.0 0.00 0.00 0.00 64 1018.2
20260831224534 31 0 0.0 0.0 0.00 0.00 0.00 63 1018.1
20260831224021 31 0 0.0 0.0 0.00 0.00 0.00 63 1018.2
20260831223521 31 0 0.0 0.0 0.00 0.00 0.00 63 1018.2
20260831223036 31 0 0.0 0.0 0.00 0.00 0.00 60 1018.2
20260831222519 32 0 0.0 0.0 0.00 0.00 0.00 63 1018.2
20260831222020 32 0 0.0 0.0 0.00 0.00 0.00 61 1018.2
20260831221535 32 0 0.0 0.0 0.00 0.00 0.00 57 1018.2
20260831221020 32 0 0.0 0.0 0.00 0.00 0.00 59 1018.1
20260831220520 32 0 0.0 0.0 0.00 0.00 0.00 57 1018.1
20260831220036 32 0 0.0 4.8 0.00 0.00 0.00 57 1018.1
20260831215519 32 0 0.0 4.8 0.00 0.00 0.00 57 1018.2
20260831215017 32 0 0.0 4.8 0.00 0.00 0.00 56 1018.3
20260831214537 32 0 0.0 0.0 0.00 0.00 0.00 55 1018.3
20260831214026 33 0 0.0 0.0 0.00 0.00 0.00 57 1018.3
20260831213518 33 0 0.0 0.0 0.00 0.00 0.00 56 1018.4
20260831213035 33 0 0.0 0.0 0.00 0.00 0.00 54 1018.4
20260831212520 33 0 0.0 0.0 0.00 0.00 0.00 53 1018.4
20260831212020 33 0 0.0 0.0 0.00 0.00 0.00 52 1018.4
20260831211539 33 0 0.0 0.0 0.00 0.00 0.00 53 1018.5
20260831211019 33 0 0.0 0.0 0.00 0.00 0.00 53 1018.5
20260831210518 33 0 0.0 0.0 0.00 0.00 0.00 52 1018.4
20260831210033 33 0 0.0 0.0 0.00 0.00 0.00 50 1018.5
20260831205523 33 0 0.0 0.0 0.00 0.00 0.00 48 1018.6
20260831205021 33 0 0.0 0.0 0.00 0.00 0.00 47 1018.6
20260831204538 33 0 0.0 0.0 0.00 0.00 0.00 50 1018.6
20260831204018 33 0 0.0 0.0 0.00 0.00 0.00 47 1018.6
20260831203519 33 0 0.0 0.0 0.00 0.00 0.00 48 1018.7
20260831203038 34 0 0.0 0.0 0.00 0.00 0.00 47 1018.7
20260831202517 34 0 0.0 0.0 0.00 0.00 0.00 51 1018.7
20260831202019 34 0 0.0 0.0 0.00 0.00 0.00 48 1018.8
20260831201537 33 0 0.0 0.0 0.00 0.00 0.00 46 1018.8
20260831201016 33 0 0.0 0.0 0.00 0.00 0.00 48 1018.8
20260831200516 33 0 0.0 0.0 0.00 0.00 0.00 48 1018.8
20260831200042 33 0 0.0 0.0 0.00 0.00 0.00 47 1018.8
20260831195517 33 0 0.0 0.0 0.00 0.00 0.00 46 1018.8
20260831195023 34 0 0.0 0.0 0.00 0.00 0.00 42 1018.9
20260831194535 34 0 0.0 0.0 0.00 0.00 0.00 45 1019.0
20260831194023 34 0 0.0 0.0 0.00 0.00 0.00 42 1019.1
20260831193522 34 0 0.0 0.0 0.00 0.00 0.00 44 1019.2
20260831193042 34 0 0.0 0.0 0.00 0.00 0.00 43 1019.2
20260831192517 34 0 0.0 0.0 0.00 0.00 0.00 40 1019.2
20260831192022 33 0 0.0 0.0 0.00 0.00 0.00 47 1019.3
20260831191536 34 0 0.0 0.0 0.00 0.00 0.00 47 1019.4
20260831191016 34 0 0.0 0.0 0.00 0.00 0.00 50 1019.5
20260831190518 34 0 0.0 0.0 0.00 0.00 0.00 47 1019.6
20260831190041 34 0 0.0 0.0 0.00 0.00 0.00 46 1019.6
20260831185519 33 0 0.0 0.0 0.00 0.00 0.00 49 1019.7
20260831185024 33 0 0.0 0.0 0.00 0.00 0.00 48 1019.8
20260831184533 33 0 0.0 0.0 0.00 0.00 0.00 47 1019.8
20260831184021 34 0 0.0 0.0 0.00 0.00 0.00 45 1019.9
20260831183523 34 0 0.0 0.0 0.00 0.00 0.00 49 1019.9
20260831183038 33 0 0.0 0.0 0.00 0.00 0.00 51 1019.9
20260831182516 33 0 0.0 0.0 0.00 0.00 0.00 55 1019.9
20260831182021 33 0 0.0 0.0 0.00 0.00 0.00 55 1020.0
20260831181535 32 0 0.0 0.0 0.00 0.00 0.00 54 1020.0
20260831181020 32 0 0.0 0.0 0.00 0.00 0.00 53 1020.0
20260831180520 33 0 0.0 0.0 0.00 0.00 0.00 52 1020.1
20260831180045 33 0 0.0 0.0 0.00 0.00 0.00 57 1020.0
20260831175520 33 0 0.0 0.0 0.00 0.00 0.00 56 1020.1
20260831175017 33 0 0.0 0.0 0.00 0.00 0.00 59 1020.1
20260831174543 33 0 0.0 0.0 0.00 0.00 0.00 57 1020.2
20260831174025 33 0 0.0 0.0 0.00 0.00 0.00 58 1020.1
20260831173518 32 0 0.0 0.0 0.00 0.00 0.00 62 1020.2
20260831173038 32 0 0.0 0.0 0.00 0.00 0.00 61 1020.2
20260831172517 32 0 0.0 0.0 0.00 0.00 0.00 60 1020.2
20260831172020 32 0 0.0 0.0 0.00 0.00 0.00 60 1020.2
20260831171536 32 0 0.0 0.0 0.00 0.00 0.00 61 1020.2
20260831171018 31 0 0.0 0.0 0.00 0.00 0.00 63 1020.2
20260831170520 31 0 0.0 0.0 0.00 0.00 0.00 63 1020.3
20260831170033 31 0 0.0 0.0 0.00 0.00 0.00 64 1020.3
20260831165519 31 0 0.0 0.0 0.00 0.00 0.00 63 1020.4
20260831165023 31 0 0.0 0.0 0.00 0.00 0.00 63 1020.4
20260831164553 31 0 0.0 0.0 0.00 0.00 0.00 63 1020.5
20260831164020 32 0 0.0 0.0 0.00 0.00 0.00 66 1020.4
20260831163521 31 0 0.0 0.0 0.00 0.00 0.00 64 1020.4
20260831163039 30 0 0.0 0.0 0.00 0.00 0.00 67 1020.5
20260831162521 30 0 0.0 0.0 0.00 0.00 0.00 67 1020.6
20260831162022 31 0 0.0 0.0 0.00 0.00 0.00 67 1020.5
20260831161537 31 0 0.0 0.0 0.00 0.00 0.00 67 1020.6
20260831161018 31 0 0.0 0.0 0.00 0.00 0.00 68 1020.6
20260831160516 31 0 0.0 0.0 0.00 0.00 0.00 67 1020.6
20260831160043 31 0 0.0 0.0 0.00 0.00 0.00 69 1020.7
20260831155521 30 0 0.0 0.0 0.00 0.00 0.00 70 1020.7
20260831155021 30 0 0.0 0.0 0.00 0.00 0.00 70 1020.7
20260831154605 30 0 0.0 0.0 0.00 0.00 0.00 72 1020.8
20260831154028 30 0 0.0 0.0 0.00 0.00 0.00 70 1020.9
20260831153520 30 0 0.0 0.0 0.00 0.00 0.00 73 1021.0
20260831153037 30 0 0.0 0.0 0.00 0.00 0.00 72 1021.0
20260831152523 30 0 0.0 0.0 0.00 0.00 0.00 73 1021.1
20260831152016 30 0 0.0 0.0 0.00 0.00 0.00 73 1021.1
20260831151535 30 0 0.0 0.0 0.00 0.00 0.00 73 1021.0
20260831151016 29 0 0.0 0.0 0.00 0.00 0.00 75 1021.1
20260831150521 28 0 0.0 0.0 0.00 0.00 0.00 77 1021.1
20260831150042 28 0 0.0 0.0 0.00 0.00 0.00 75 1021.0
20260831145520 28 0 0.0 0.0 0.00 0.00 0.00 75 1021.1
20260831145017 28 0 0.0 0.0 0.00 0.00 0.00 77 1021.1
20260831144536 29 0 0.0 0.0 0.00 0.00 0.00 76 1021.0
20260831144018 29 0 0.0 0.0 0.00 0.00 0.00 78 1021.1
20260831143520 28 0 0.0 0.0 0.00 0.00 0.00 78 1021.0
20260831143038 28 0 0.0 0.0 0.00 0.00 0.00 78 1021.1
20260831142521 28 0 0.0 0.0 0.00 0.00 0.00 78 1021.0
20260831142021 28 0 0.0 0.0 0.00 0.00 0.00 78 1020.9
20260831141534 28 0 0.0 0.0 0.00 0.00 0.00 79 1020.9
20260831141020 28 0 0.0 0.0 0.00 0.00 0.00 79 1020.8
20260831140520 28 0 0.0 0.0 0.00 0.00 0.00 81 1020.8
20260831140035 27 0 0.0 0.0 0.00 0.00 0.00 82 1020.7
20260831135520 27 0 0.0 0.0 0.00 0.00 0.00 83 1020.6
20260831135021 27 0 0.0 0.0 0.00 0.00 0.00 84 1020.6
20260831134534 27 0 0.0 0.0 0.00 0.00 0.00 85 1020.7
20260831134018 27 0 0.0 0.0 0.00 0.00 0.00 87 1020.7
20260831133523 26 0 0.0 0.0 0.00 0.00 0.00 88 1020.6
20260831133036 26 0 0.0 0.0 0.00 0.00 0.00 91 1020.8
20260831132522 26 0 0.0 0.0 0.00 0.00 0.00 93 1020.7
20260831132020 25 0 0.0 0.0 0.00 0.00 0.00 94 1020.7
20260831131533 25 0 0.0 0.0 0.00 0.00 0.00 95 1020.7
20260831131020 25 0 0.0 0.0 0.00 0.00 0.00 96 1020.8
20260831130519 24 0 0.0 0.0 0.00 0.00 0.00 97 1020.7
20260831130036 24 0 0.0 0.0 0.00 0.00 0.00 98 1020.7
20260831125518 23 0 0.0 0.0 0.00 0.00 0.00 98 1020.8
20260831125016 23 0 0.0 0.0 0.00 0.00 0.00 98 1020.8
20260831124535 23 0 0.0 0.0 0.00 0.00 0.00 98 1020.8
20260831124020 22 0 0.0 0.0 0.00 0.00 0.00 98 1020.8
20260831123518 21 0 0.0 0.0 0.00 0.00 0.00 97 1020.8
20260831123037 21 0 0.0 0.0 0.00 0.00 0.00 97 1020.8
20260831122524 21 0 0.0 0.0 0.00 0.00 0.00 97 1020.8
20260831122020 21 0 0.0 0.0 0.00 0.00 0.00 97 1020.8
20260831121533 21 0 0.0 0.0 0.00 0.00 0.00 96 1020.8
20260831121016 20 0 0.0 0.0 0.00 0.00 0.00 96 1020.8
20260831120520 20 0 0.0 0.0 0.00 0.00 0.00 96 1020.8
20260831120041 20 0 0.0 0.0 0.00 0.00 0.00 96 1020.7
20260831115519 20 0 0.0 0.0 0.00 0.00 0.00 96 1020.7
20260831115020 20 0 0.0 0.0 0.00 0.00 0.00 96 1020.6
20260831114538 20 0 0.0 0.0 0.00 0.00 0.00 96 1020.6
20260831114020 20 0 0.0 0.0 0.00 0.00 0.00 96 1020.6
20260831113520 20 0 0.0 0.0 0.00 0.00 0.00 96 1020.6
20260831113037 20 0 0.0 0.0 0.00 0.00 0.00 95 1020.6
20260831112518 20 0 0.0 0.0 0.00 0.00 0.00 95 1020.6
20260831112018 20 0 0.0 0.0 0.00 0.00 0.00 95 1020.6
20260831111549 20 0 0.0 0.0 0.00 0.00 0.00 95 1020.7
20260831111018 20 0 0.0 0.0 0.00 0.00 0.00 95 1020.6
20260831110521 20 0 0.0 0.0 0.00 0.00 0.00 95 1020.6
20260831110045 20 0 0.0 0.0 0.00 0.00 0.00 95 1020.6
20260831105523 20 0 0.0 0.0 0.00 0.00 0.00 95 1020.6
20260831105021 20 0 0.0 0.0 0.00 0.00 0.00 95 1020.5
20260831104550 20 0 0.0 0.0 0.00 0.00 0.00 95 1020.5
20260831104026 20 0 0.0 0.0 0.00 0.00 0.00 95 1020.5
20260831103521 20 0 0.0 0.0 0.00 0.00 0.00 95 1020.4
20260831103039 20 0 0.0 0.0 0.00 0.00 0.00 95 1020.5
20260831102520 20 0 0.0 0.0 0.00 0.00 0.00 95 1020.4
20260831102018 20 0 0.0 0.0 0.00 0.00 0.00 95 1020.4
20260831101542 20 0 0.0 0.0 0.00 0.00 0.00 95 1020.3
20260831101019 20 0 0.0 0.0 0.00 0.00 0.00 95 1020.3
20260831100523 20 0 0.0 0.0 0.00 0.00 0.00 95 1020.3
20260831100045 20 0 0.0 0.0 0.00 0.00 0.00 95 1020.3
20260831095520 20 0 0.0 0.0 0.00 0.00 0.00 95 1020.2
20260831095020 20 0 0.0 0.0 0.00 0.00 0.00 95 1020.2
20260831094537 20 0 0.0 0.0 0.00 0.00 0.00 95 1020.2
20260831094020 20 0 0.0 0.0 0.00 0.00 0.00 95 1020.2
20260831093520 20 0 0.0 0.0 0.00 0.00 0.00 95 1020.1
20260831093047 20 0 0.0 0.0 0.00 0.00 0.00 95 1020.1
20260831092519 20 0 0.0 0.0 0.00 0.00 0.00 95 1020.2
20260831092017 20 0 0.0 0.0 0.00 0.00 0.00 95 1020.2
20260831091535 20 0 0.0 0.0 0.00 0.00 0.00 95 1020.1
20260831091018 20 0 0.0 0.0 0.00 0.00 0.00 95 1020.0
20260831090518 20 0 0.0 0.0 0.00 0.00 0.00 95 1020.0
20260831090040 20 0 0.0 0.0 0.00 0.00 0.00 95 1020.1
20260831085521 20 0 0.0 0.0 0.00 0.00 0.00 95 1020.1
20260831085020 20 0 0.0 0.0 0.00 0.00 0.00 95 1020.1
20260831084536 20 0 0.0 0.0 0.00 0.00 0.00 95 1020.1
20260831084020 20 0 0.0 0.0 0.00 0.00 0.00 95 1020.1
20260831083520 20 0 0.0 0.0 0.00 0.00 0.00 95 1020.1
20260831083036 20 0 0.0 0.0 0.00 0.00 0.00 95 1020.0
20260831082518 20 0 0.0 0.0 0.00 0.00 0.00 94 1020.0
20260831082018 20 0 0.0 0.0 0.00 0.00 0.00 95 1020.1
20260831081536 20 0 0.0 0.0 0.00 0.00 0.00 95 1020.0